Barrow, AK

9:27 AM AKDT on May 23, 2017 (GMT -0800)
Wiley Post-Will Rogers Memorial

Weather History for PABR - July, 2014

Change the Weather History Date:

Tuesday, July 29, 2014

  Actual Average Record
Temperature  
Mean Temperature 34 °F 41 °F  
Max Temperature 37 °F 47 °F 71 °F (1968)
Min Temperature 31 °F 35 °F 27 °F (1936)
Degree Days  
Heating Degree Days 31 24  
Month to date heating degree days 786 699  
Since 1 June heating degree days 1719 1579  
Since 1 July heating degree days 786 699  
Cooling Degree Days 0    
Month to date cooling degree days 0  
Year to date cooling degree days 0  
Since 1 June cooling degree days 0  
Moisture  
Dew Point 32 °F    
Average Humidity 0    
Maximum Humidity 0    
Minimum Humidity 0    
Precipitation  
Precipitation 0.00 in 0.04 in 0.84 in (1922)
Month to date precipitation 0.96 0.91  
Year to date precipitation 4.05 1.93  
Snow  
Snow 0.00 in 0.00 in 6.00 in (1922)
Month to date snowfall 0.9 0.2  
Since 1 June snowfall 1.8 0.9  
Since 1 July snowfall 0.9 0.2  
Snow Depth 0.00 in    
Sea Level Pressure  
Sea Level Pressure 30.37 in    
Wind  
Wind Speed 9 mph (North)    
Max Wind Speed 14 mph    
Max Gust Speed 17 mph    
Visibility 6 miles    
Events Fog    
T = Trace of Precipitation, MM = Missing Value Source: NWS Daily Summary

Daily Weather History Graph

Daily Weather History Graph

Search for Another Location

Airport or City:

Trip Planner

Search our weather history database for the weather conditions in past years. The results will help you decide how hot, cold, wet, or windy it might be!

Date:

Astronomy

Jul. 29, 2014 Rise Set
Actual Time 3:06 AM AKDT 2:01 AM AKDT
Civil Twilight Sun does not set Sun does not set
Nautical Twilight Sun does not set Sun does not set
Astronomical Twilight Sun does not set Sun does not set
Moon 9:18 AM AKDT (7/29) 11:31 PM AKDT (7/29)
Length of Visible Light 24h 00m
Length of Day
22h 55m
Waxing Crescent, 7% of the Moon is Illuminated
Jul 29
Waxing Crescent
Aug 3
First Quarter
Aug 10
Full
Aug 17
Last Quarter
Aug 25
New

Hourly Weather History & Observations

Time (AKDT) Temp. Windchill Dew Point Humidity Pressure Visibility Wind Dir Wind Speed Gust Speed Precip Events Conditions
12:53 AM 35.1 °F 29.3 °F 28.9 °F 78% 30.36 in 10.0 mi WNW 6.9 mph - N/A   Mostly Cloudy
1:53 AM 35.1 °F 27.9 °F 30.0 °F 82% 30.37 in 10.0 mi WNW 9.2 mph - N/A   Mostly Cloudy
2:53 AM 36.0 °F 29.0 °F 28.9 °F 76% 30.36 in 10.0 mi West 9.2 mph - N/A   Mostly Cloudy
3:53 AM 36.0 °F 29.0 °F 30.0 °F 79% 30.36 in 10.0 mi West 9.2 mph - N/A   Overcast
4:53 AM 36.0 °F 28.5 °F 30.9 °F 82% 30.36 in 10.0 mi WNW 10.4 mph - N/A   Mostly Cloudy
5:53 AM 37.0 °F 28.9 °F 30.9 °F 79% 30.36 in 10.0 mi WNW 12.7 mph - N/A   Mostly Cloudy
6:53 AM 37.0 °F 28.5 °F 30.0 °F 76% 30.36 in 10.0 mi NW 13.8 mph - N/A   Mostly Cloudy
7:53 AM 37.0 °F 29.3 °F 32.0 °F 82% 30.36 in 10.0 mi WNW 11.5 mph - N/A   Mostly Cloudy
8:53 AM 36.0 °F 28.0 °F 32.0 °F 86% 30.36 in 10.0 mi NW 11.5 mph - N/A   Scattered Clouds
9:53 AM 36.0 °F 28.0 °F 32.0 °F 86% 30.37 in 10.0 mi NNW 11.5 mph - N/A   Scattered Clouds
10:53 AM 37.0 °F 30.4 °F 32.0 °F 82% 30.37 in 10.0 mi NNW 9.2 mph - N/A   Partly Cloudy
11:53 AM 37.0 °F 31.0 °F 32.0 °F 82% 30.37 in 10.0 mi NNW 8.1 mph - N/A   Scattered Clouds
12:53 PM 36.0 °F 29.6 °F 32.0 °F 86% 30.38 in 10.0 mi North 8.1 mph - N/A   Mostly Cloudy
1:00 PM 36.0 °F 29.6 °F 32.0 °F 86% 30.37 in 10.0 mi North 8.1 mph - N/A   Mostly Cloudy
1:25 PM 34.0 °F 27.2 °F 32.0 °F 92% 30.37 in 2.5 mi NNW 8.1 mph - N/A   Mostly Cloudy
1:37 PM 35.1 °F 30.1 °F 33.1 °F 92% 30.38 in 1.0 mi North 5.8 mph - N/A   Overcast
1:43 PM 34.0 °F 28.8 °F 33.1 °F 96% 30.37 in 0.5 mi North 5.8 mph - N/A Fog Fog
1:53 PM 34.0 °F 28.8 °F 32.0 °F 92% 30.38 in 0.8 mi North 5.8 mph - N/A   Overcast
2:11 PM 34.0 °F 28.8 °F 32.0 °F 92% 30.37 in 1.0 mi NNW 5.8 mph - N/A   Mostly Cloudy
2:34 PM 35.1 °F 30.1 °F 32.0 °F 89% 30.38 in 3.0 mi North 5.8 mph - N/A   Mostly Cloudy
2:53 PM 35.1 °F 30.1 °F 33.1 °F 92% 30.38 in 4.0 mi North 5.8 mph - N/A   Mostly Cloudy
3:53 PM 37.0 °F 32.4 °F 33.1 °F 86% 30.38 in 10.0 mi Variable 5.8 mph - N/A Fog Patches of Fog
4:53 PM 36.0 °F 30.3 °F 33.1 °F 89% 30.38 in 6.0 mi North 6.9 mph - N/A   Mostly Cloudy
5:53 PM 36.0 °F 29.6 °F 33.1 °F 89% 30.38 in 6.0 mi NNE 8.1 mph - N/A   Mostly Cloudy
6:53 PM 37.0 °F 31.0 °F 33.1 °F 86% 30.37 in 6.0 mi NE 8.1 mph - N/A   Mostly Cloudy
7:53 PM 36.0 °F 29.6 °F 33.1 °F 89% 30.37 in 9.0 mi ENE 8.1 mph - N/A   Overcast
8:34 PM 35.1 °F 27.4 °F 33.1 °F 92% 30.36 in 2.0 mi ENE 10.4 mph - N/A   Overcast
8:53 PM 34.0 °F 27.2 °F 33.1 °F 96% 30.37 in 2.0 mi East 8.1 mph - N/A   Overcast
9:04 PM 34.0 °F 26.6 °F 32.0 °F 92% 30.36 in 3.0 mi ENE 9.2 mph - N/A   Overcast
9:53 PM 33.8 °F 25.8 °F 32.0 °F 93% 30.35 in 9.0 mi East 10.4 mph - N/A   Overcast
10:53 PM 34.0 °F 26.6 °F 33.1 °F 96% 30.35 in 3.0 mi East 9.2 mph - N/A   Overcast
11:23 PM 34.0 °F 26.6 °F 33.1 °F 96% 30.35 in 1.5 mi East 9.2 mph - N/A   Overcast
11:39 PM 34.0 °F 26.6 °F 32.0 °F 92% 30.35 in 3.0 mi East 9.2 mph - N/A   Overcast
11:53 PM 33.1 °F 25.5 °F 32.0 °F 96% 30.35 in 6.0 mi East 9.2 mph - N/A   Overcast